User: anonymous   Login
Location: Unspecified
(47.9110°N, 14.3980°E)
Time: 18:19:21
(UTC+00:00)
Language:

Cosmos 1733 Rocket - Orbit

View from above orbital plane
View from above orbital plane
View from above satellite
View from above satellite

Ground track
Ground track

The orbit data is extracted from the following two-line orbital elements,

1 16612U 86018B   20295.24375251 +.00000110 +00000-0 +10126-4 0  9992
2 16612 082.5186 229.7711 0019235 080.1703 031.9540 14.84272513751626
Epoch (UTC): 21 October 2020 05:51:00
Eccentricity: 0.0019235
inclination: 82.5186°
perigee height: 602 km
apogee height: 629 km
right ascension of ascending node: 229.7711°
argument of perigee: 80.1703°
revolutions per day: 14.84272513
mean anomaly at epoch: 31.9540°
orbit number at epoch: 75162

The dashed part of the orbit path shows where the satellite is in the earth's shadow,  

DLR